Lapse_Rate
6.9 6.5 6.2 6.1 5.9 5.9 5.7 5.6 5.5 5.4 5.8 5.8 6.0 6.2 6.7 6.9 6.8 6.6 6.8 6.9 6.7 6.9 7.0 7.2 7.1 7.1 7.0 7.0 6.9 6.8 6.7 6.7 6.6 6.5 6.5 6.5 6.4 6.4 6.3 6.3 6.4 6.4 6.4
6.8 6.7 6.1 6.0 6.0 6.3 6.4 6.2 5.8 5.5 5.4 5.7 5.9 5.8 6.0 6.3 6.6 6.5 6.4 6.6 6.6 6.7 6.9 7.1 7.0 6.8 6.8 6.7 6.4 6.4 6.5 6.5 6.4 6.4 6.4 6.4 6.4 6.3 6.3 6.3 6.3 6.3 6.3
7.1 7.0 6.8 6.4 6.2 6.2 6.5 6.5 6.3 6.1 5.6 5.5 5.7 5.6 5.7 5.7 6.0 6.4 6.6 6.9 6.8 6.7 6.8 6.8 6.7 6.7 6.8 6.5 6.3 6.3 6.3 6.4 6.3 6.1 6.2 6.2 6.2 6.2 6.2 6.2 6.2 6.2 6.2
6.7 6.9 7.2 7.3 7.0 6.7 6.4 6.3 6.1 5.9 5.8 5.7 5.7 5.8 5.9 5.9 6.1 6.7 6.6 6.4 6.7 6.5 6.5 6.5 6.6 6.6 6.6 6.2 6.2 6.3 6.2 6.3 6.0 5.9 5.9 6.0 6.0 6.0 6.1 6.1 6.1 6.0 6.0
6.7 6.8 6.8 7.0 7.2 6.9 6.7 6.6 6.4 6.4 6.1 5.9 5.9 5.9 5.9 5.9 5.7 5.9 6.2 6.1 6.3 6.4 6.4 6.4 6.4 6.4 6.6 6.4 6.3 5.9 6.2 6.2 5.9 5.6 5.7 5.8 5.9 5.9 5.9 5.9 5.9 5.9 5.8
6.5 6.6 6.8 6.7 6.6 6.6 6.6 6.6 6.7 6.7 6.5 6.4 6.1 5.8 5.9 6.0 5.9 5.9 6.0 6.0 6.2 6.3 6.2 6.2 6.3 6.3 6.4 6.2 6.0 5.9 5.8 5.8 5.6 5.7 5.6 5.7 5.8 5.8 5.8 5.8 5.8 5.8 5.8
6.4 6.4 6.5 6.3 6.3 6.1 6.2 6.3 6.3 6.3 6.3 6.1 6.0 5.8 5.7 5.8 5.8 5.9 5.9 6.0 6.1 6.1 6.1 6.1 6.2 6.2 6.4 6.1 5.6 6.2 5.6 5.5 5.7 5.7 5.6 5.6 5.7 5.7 5.7 5.7 5.8 6.0 6.1
5.7 5.7 5.7 5.8 5.9 5.9 5.9 5.6 5.8 6.0 6.0 6.1 6.1 5.8 5.7 5.6 5.5 5.7 5.9 6.0 5.8 6.0 6.0 6.0 6.2 6.2 6.1 6.1 6.0 6.4 6.1 5.8 5.6 5.3 5.4 5.4 5.5 5.6 5.7 5.8 5.7 5.8 5.9
5.5 5.6 5.6 5.6 5.6 5.7 5.8 6.0 6.1 6.1 6.2 6.2 6.1 6.0 5.8 5.6 5.5 5.5 5.5 5.9 5.9 5.8 5.9 6.1 6.1 6.1 6.0 6.1 6.0 6.3 6.1 5.6 5.7 5.4 5.3 5.4 5.5 5.5 5.6 5.7 5.8 5.8 5.9
5.5 5.6 5.5 5.6 5.7 5.7 5.8 6.0 6.0 5.9 5.9 6.1 6.4 6.2 6.1 6.0 5.9 5.8 5.6 5.6 6.0 6.0 6.0 6.1 6.1 6.1 6.1 6.0 6.0 6.0 6.2 5.8 5.5 5.6 5.4 5.5 5.3 5.4 5.7 5.8 5.9 6.0 6.2
5.3 5.3 5.3 5.6 5.5 5.5 5.5 5.6 5.6 5.8 6.2 6.4 6.3 6.3 6.2 6.2 6.3 6.3 6.2 5.9 6.0 6.2 6.1 6.0 6.1 6.1 6.1 6.1 6.3 6.0 5.9 6.0 5.7 5.6 5.5 5.5 5.3 5.3 5.4 5.6 5.9 6.1 5.9
4.7 4.8 4.8 5.0 5.2 5.3 5.8 5.8 5.9 6.2 6.5 7.0 6.9 6.6 6.6 6.5 6.3 6.3 6.3 6.2 6.1 6.3 6.4 6.1 6.1 6.1 5.9 5.8 5.9 6.2 5.7 5.4 5.6 5.6 5.4 4.9 5.3 5.1 5.5 5.8 5.7 5.7 5.6
4.1 4.5 4.6 4.8 5.2 6.0 6.1 6.6 6.5 6.7 6.9 7.4 7.3 7.0 6.9 6.8 6.6 6.5 6.3 6.2 6.3 6.4 6.4 6.2 6.1 6.0 6.0 5.9 6.1 6.1 5.5 5.7 5.3 5.4 5.6 5.0 5.0 5.2 5.5 5.6 5.9 5.8 6.0
4.6 5.0 4.8 5.0 5.5 6.5 6.5 6.7 6.5 6.3 7.1 7.7 7.6 7.4 7.4 7.0 6.7 6.5 6.3 6.4 6.3 6.2 6.6 6.3 6.2 6.0 5.8 5.8 6.0 5.7 5.6 5.8 5.3 5.2 5.2 5.1 5.3 5.2 5.3 5.6 5.7 5.9 5.9
4.7 5.1 4.6 4.8 5.6 5.8 6.2 6.0 6.2 6.9 7.2 7.2 7.4 7.5 7.5 7.3 6.9 6.7 6.4 6.2 6.2 6.4 6.8 6.4 6.5 5.9 6.0 6.1 5.7 5.6 5.8 5.6 5.4 4.9 5.1 5.0 5.3 5.4 5.4 5.6 5.8 5.9 6.0
4.6 4.6 5.0 5.0 5.5 5.5 5.8 6.2 6.4 6.7 7.1 7.4 7.7 7.6 7.6 7.3 7.0 6.6 6.4 6.1 6.2 6.5 6.3 6.3 6.1 5.7 6.0 5.8 5.7 5.8 5.5 5.7 5.5 5.2 5.0 5.1 5.3 5.3 5.6 5.7 5.8 5.9 5.7
4.5 4.5 5.2 5.0 5.1 5.3 5.4 5.8 5.9 6.5 7.4 7.7 7.8 7.8 7.7 7.6 7.3 6.8 6.8 6.6 6.3 6.2 6.0 6.2 5.8 5.9 6.0 6.1 5.4 5.1 5.0 5.1 5.0 5.2 5.3 5.0 5.3 5.5 5.5 5.6 5.8 5.6 5.4
4.9 4.8 4.6 4.8 5.0 5.0 5.2 5.5 5.3 5.5 6.2 6.9 7.0 7.3 7.0 7.0 6.1 6.8 7.0 6.2 5.9 6.1 5.9 6.3 6.0 5.7 5.3 5.0 5.0 5.0 4.9 5.0 5.2 5.5 5.5 5.4 5.5 5.5 5.7 5.7 5.7 5.8 5.4
5.4 5.8 5.3 5.0 5.0 5.1 5.3 5.4 5.4 5.3 5.7 6.1 6.4 6.5 6.4 6.4 6.0 5.8 5.7 6.3 5.9 6.0 5.8 5.7 5.0 5.1 5.0 5.3 5.1 4.9 5.0 5.3 5.3 5.4 5.3 5.6 5.7 5.5 5.6 5.9 5.8 5.3 4.8
5.4 5.4 5.2 5.2 5.0 5.3 5.6 5.8 5.4 5.2 5.3 5.8 5.6 5.4 5.5 5.7 5.6 5.6 5.5 5.9 6.0 5.6 5.2 5.3 5.2 5.2 5.2 5.3 5.4 5.6 5.4 5.3 5.3 5.2 5.4 5.3 5.6 5.9 5.6 5.3 5.1 4.9 4.7
5.5 5.5 5.5 5.0 5.0 4.9 5.0 5.2 5.3 5.0 5.2 5.3 5.2 5.4 5.3 5.3 5.1 5.2 5.2 5.5 5.0 5.0 5.2 5.2 5.3 5.5 5.5 5.4 5.3 5.2 5.0 4.9 5.0 5.3 5.5 5.6 5.4 5.3 5.0 4.8 4.7 4.7 4.5
5.5 5.4 5.4 5.4 5.2 5.0 4.8 5.1 5.0 5.0 4.9 4.8 5.0 4.9 4.9 5.1 5.1 5.1 5.1 5.2 5.2 5.3 5.6 5.6 5.5 5.3 5.2 5.1 5.0 4.9 5.2 5.6 5.7 5.5 5.6 5.4 5.1 5.0 4.9 4.9 4.7 4.4 4.1
6.0 5.6 5.5 5.6 5.5 5.2 5.1 5.2 4.8 4.8 4.7 4.7 4.8 4.7 4.8 5.1 5.1 5.0 5.2 5.3 5.4 5.5 5.5 5.2 5.0 5.0 5.1 5.2 5.4 5.3 5.2 5.2 5.2 5.2 5.1 4.9 5.0 4.9 4.7 4.4 4.0 4.0 4.3
5.8 5.8 5.5 5.6 5.5 5.3 5.5 5.4 5.2 5.3 5.2 5.2 5.2 5.3 5.4 5.4 5.4 5.4 5.4 5.4 5.4 5.3 5.1 5.1 5.1 5.2 5.3 5.3 5.2 5.1 5.0 5.0 4.9 4.8 4.5 4.4 4.4 4.5 4.1 3.7 3.8 4.4 5.4
5.7 5.8 5.6 5.7 5.7 5.5 5.6 5.6 5.6 5.5 5.4 5.3 5.2 5.3 5.3 5.4 5.3 5.3 5.3 5.2 5.2 5.2 5.2 5.3 5.3 5.2 5.1 4.9 4.9 4.9 4.8 4.6 4.4 4.3 4.0 4.1 4.1 3.8 3.7 4.0 4.8 5.4 5.4
5.8 5.9 5.8 5.7 5.5 5.1 5.5 5.5 5.5 5.4 5.5 5.4 5.3 5.4 5.4 5.4 5.4 5.3 5.3 5.3 5.2 5.2 5.1 5.1 5.2 5.1 5.0 4.8 4.7 4.6 4.1 3.8 3.6 3.5 3.5 3.5 3.7 4.2 4.6 5.1 5.1 5.3 5.4
Wind_Speed
14 7 8 8 8 8 8 9 10 13 10 8 9 8 10 9 7 8 14 17 17 18 14 8 9 10 8 6 6 4 4 2 1 3 2 3 3 3 1 1 2 4 4
9 8 9 7 7 9 7 8 9 13 12 10 11 6 10 8 8 6 8 17 18 19 16 11 11 10 5 6 6 5 3 2 1 3 2 1 2 1 2 1 3 4 6
14 13 9 10 9 8 9 8 8 10 12 15 5 1 4 3 3 3 4 7 15 19 18 15 10 11 9 8 7 6 6 4 1 2 4 2 4 1 1 2 2 4 2
9 10 9 8 8 9 8 7 7 8 9 14 10 11 11 9 8 7 7 7 11 13 18 17 12 11 8 8 8 5 4 5 4 2 2 4 3 3 1 1 0 0 2
8 10 9 9 9 7 7 7 7 7 8 9 14 11 13 10 7 4 9 8 6 10 13 15 12 12 8 7 8 7 5 3 4 3 3 2 3 3 2 2 2 2 2
10 9 8 9 9 4 4 5 7 7 8 8 12 14 14 7 5 5 9 8 7 5 6 8 9 9 9 9 8 6 8 5 4 3 3 3 3 3 3 2 2 3 3
9 10 13 12 8 8 5 5 5 4 6 8 9 12 12 10 13 12 10 11 8 6 9 10 9 8 8 9 7 7 6 6 5 5 3 3 2 3 3 3 2 2 2
7 8 8 9 10 8 9 8 5 5 5 6 10 11 9 8 9 11 9 10 11 12 12 10 9 9 9 9 8 4 5 6 5 6 5 3 3 2 3 4 4 1 2
9 9 8 7 7 7 8 7 8 8 6 7 7 9 8 9 10 12 11 10 9 8 12 12 10 10 10 10 9 5 4 5 4 5 4 3 3 2 3 3 3 4 2
9 10 7 7 6 8 6 7 8 9 8 7 6 8 10 10 8 8 9 10 9 12 12 13 12 11 10 10 10 7 6 5 3 3 4 4 3 3 2 3 3 3 4
12 13 8 6 7 8 6 5 6 8 8 7 6 6 6 7 7 9 10 10 11 13 14 13 12 13 12 10 9 8 7 7 4 3 3 3 4 4 3 2 2 3 3
19 16 8 7 4 6 7 5 8 8 7 7 5 5 6 6 7 7 9 11 11 11 13 13 12 11 11 10 9 8 6 6 5 3 2 4 2 3 4 3 4 4 3
16 7 7 7 6 4 4 6 6 7 8 6 5 6 6 7 7 7 8 9 11 10 10 12 12 12 11 10 8 7 7 5 4 5 4 4 3 4 3 3 3 3 3
11 8 6 7 8 4 4 6 7 6 5 2 2 3 3 5 7 9 9 10 11 12 12 13 13 12 11 10 8 5 6 4 3 3 3 0 4 5 4 4 4 3 3
14 12 9 5 5 5 5 4 5 5 2 5 6 5 6 8 10 11 12 12 13 13 14 15 13 13 10 7 7 7 4 6 4 3 3 2 4 6 7 3 4 3 3
14 13 9 5 6 6 4 4 4 6 6 7 7 9 11 11 12 13 15 14 14 14 14 13 13 11 7 14 11 7 3 6 3 1 1 3 4 4 6 8 10 7 3
12 12 9 7 7 6 5 6 8 8 9 10 10 10 12 13 12 13 15 14 14 14 14 12 11 10 9 15 11 10 5 3 1 1 0 2 3 5 4 7 10 10 14
9 10 8 8 8 6 6 6 8 9 9 10 12 12 12 13 12 13 12 12 12 12 12 12 9 7 8 12 9 6 4 3 1 1 1 2 4 5 6 5 5 6 5
7 7 7 7 6 6 6 8 9 8 8 9 10 9 10 11 11 11 11 9 12 11 9 8 8 6 6 12 11 6 3 2 1 1 3 3 4 9 13 6 4 5 5
6 6 6 6 6 6 6 8 8 8 8 8 9 9 9 10 10 11 10 8 9 7 7 6 5 8 6 9 7 6 2 0 1 2 3 7 8 12 13 5 3 4 5
5 7 7 7 6 6 7 8 8 8 8 9 10 10 9 10 9 9 7 9 8 7 7 6 5 6 4 4 1 0 2 2 1 2 3 3 11 12 14 15 4 6 9
6 6 6 6 6 6 6 7 8 6 8 9 9 9 8 7 7 8 7 7 7 7 6 6 4 4 4 6 5 5 4 4 1 3 3 4 12 13 15 11 14 16 12
5 5 5 6 5 6 5 8 7 7 8 9 8 8 7 7 6 8 7 5 5 5 4 3 3 3 3 3 5 4 5 6 3 3 8 13 11 12 9 13 14 12 4
5 4 5 6 6 6 6 6 7 7 8 8 7 6 7 7 6 5 4 5 4 4 3 3 3 1 1 1 2 2 3 7 7 8 3 5 8 9 10 8 6 4 4
5 5 5 5 5 6 6 5 6 7 8 7 6 6 5 6 6 5 4 4 2 4 3 3 3 2 1 1 5 6 3 3 5 2 1 2 2 4 4 5 5 4 4
6 5 4 6 5 6 6 5 6 6 7 6 4 4 4 4 4 4 4 8 7 7 6 6 2 1 3 6 7 9 10 9 12 3 3 3 3 4 5 6 6 5 8
Wind_Direction
268 240 250 244 249 262 206 201 196 207 190 184 184 201 203 199 200 208 188 180 181 173 166 165 157 162 172 167 150 124 128 80 126 105 37 29 48 91 88 159 175 136 122
263 259 254 239 224 245 249 204 204 203 197 198 199 189 199 204 201 208 179 178 174 177 169 171 168 171 150 156 162 148 133 113 134 130 96 119 333 19 29 127 144 134 127
269 267 245 242 246 231 240 241 213 205 200 202 189 51 83 46 110 180 184 182 179 178 175 173 174 174 164 175 171 166 157 143 118 147 143 114 218 140 355 47 62 128 99
261 267 267 258 236 240 242 234 228 222 207 198 194 195 195 189 199 184 191 179 179 190 177 174 169 175 173 171 173 166 164 135 156 126 81 68 129 168 220 0 159 164 181
286 279 261 249 254 233 231 232 232 211 228 213 198 202 220 217 188 147 165 174 174 194 183 180 173 173 175 164 157 147 166 156 146 145 153 118 68 79 125 203 279 322 244
345 343 324 309 284 269 232 221 222 227 211 203 207 206 213 184 162 163 172 175 173 172 174 176 182 172 158 163 163 159 158 167 134 134 139 153 154 175 145 153 220 228 281
14 4 357 341 324 299 215 201 187 214 207 208 216 206 209 182 191 186 185 171 171 180 186 167 170 173 159 152 147 159 146 154 140 139 142 123 127 131 123 123 179 216 286
351 351 344 328 316 290 305 296 219 238 214 212 211 216 210 196 196 187 179 193 196 181 169 172 167 156 150 147 137 161 135 135 129 133 129 130 125 140 147 152 147 271 286
329 323 324 325 315 304 288 281 299 290 256 219 215 218 203 178 188 188 189 181 169 171 159 161 149 155 149 146 142 138 114 126 126 127 130 123 132 174 159 147 148 158 225
307 310 304 301 299 284 272 306 310 296 297 295 229 213 198 193 176 159 176 171 163 154 156 153 150 153 147 147 142 134 129 113 120 133 156 142 133 174 190 163 161 177 174
312 303 274 291 295 292 297 312 298 291 293 292 258 204 190 174 165 168 157 157 153 156 159 157 156 155 149 143 133 125 139 125 146 148 148 167 151 174 214 187 171 188 169
322 312 309 296 324 331 319 2 317 311 299 285 252 193 151 153 159 172 156 148 152 161 155 155 152 141 128 120 121 132 109 117 139 113 145 225 159 194 215 200 205 217 199
308 304 296 277 272 298 333 356 319 314 306 272 185 167 157 161 162 149 144 147 138 147 142 134 125 118 116 108 107 113 137 165 170 159 174 216 180 227 221 219 227 224 252
316 296 300 298 294 307 1 358 346 310 306 55 87 124 147 144 136 130 123 124 124 124 119 116 114 107 100 97 96 101 98 97 87 85 73 309 231 230 229 226 234 236 246
326 317 316 298 305 354 4 15 3 341 27 85 82 89 105 110 119 111 109 110 108 110 108 103 97 96 98 106 110 117 125 109 97 73 41 303 258 240 230 219 245 227 238
336 327 319 356 17 12 21 24 15 25 55 59 75 93 96 97 100 103 104 104 104 103 100 100 106 102 112 129 127 121 111 82 88 156 13 294 320 341 326 311 305 280 225
341 344 6 19 20 16 31 36 39 41 55 78 78 83 89 91 94 101 102 108 107 104 99 96 92 96 109 110 99 81 65 89 148 122 86 346 347 347 311 306 303 299 291
352 353 4 19 15 20 40 56 62 68 67 73 83 86 91 96 97 93 95 97 101 100 104 103 100 107 109 112 110 120 107 127 156 128 33 302 313 307 285 271 277 273 272
7 18 21 27 33 33 42 59 49 50 71 81 87 95 98 103 100 108 106 103 108 107 106 97 116 134 157 152 146 141 134 134 60 4 331 295 286 298 309 296 264 278 289
24 36 38 40 39 42 60 65 66 63 63 65 76 81 90 94 101 93 105 100 86 87 106 112 129 158 157 149 147 147 164 47 16 300 303 317 312 300 301 311 320 314 283
39 50 45 47 43 58 73 69 69 63 67 72 78 73 74 88 91 97 99 93 101 112 112 98 74 71 88 32 89 200 163 236 241 311 297 271 305 312 321 326 357 293 295
68 61 58 41 37 69 91 82 74 66 83 88 79 82 82 95 105 108 93 89 94 91 83 91 79 63 45 53 39 29 341 325 240 260 253 280 312 325 326 322 309 310 327
96 88 82 75 56 61 82 91 89 93 94 88 84 82 76 72 65 90 88 87 83 87 97 97 90 57 34 23 8 356 333 322 295 296 314 328 329 323 328 316 318 326 323
110 103 102 86 78 69 71 88 94 93 93 91 82 79 86 78 64 67 70 82 84 97 104 109 117 93 31 307 254 255 296 321 323 319 329 325 330 336 326 329 315 305 300
116 114 114 102 92 91 75 65 86 94 88 80 77 76 80 83 83 78 103 101 103 130 135 148 154 150 47 306 339 352 330 297 310 120 353 333 331 332 323 313 302 302 301
131 123 108 105 100 91 90 86 88 97 107 100 94 92 87 80 80 88 62 80 100 93 96 127 121 315 287 323 345 333 333 349 335 18 338 325 322 319 311 308 309 306 303